N5JNG Weather Reports


time (UTC)temp
F
wind
direction
speed
knots
gust
knots
rain 1hr
in
rain 24hr
in
rain mn
in
humidity
%
barometer
mb
20260502130557 59 0 11.3 16.5 0.00 1.09 0.00 100 1017.6
20260502123555 60 318 6.1 10.4 0.00 1.09 0.00 100 1017.1
20260502123055 60 337 6.1 11.3 0.00 1.09 0.00 100 1017.0
20260502122555 59 348 7.0 13.0 0.00 1.09 0.00 100 1016.9
20260502122055 59 334 8.7 15.6 0.00 1.09 0.00 100 1016.8
20260502121555 59 355 8.7 15.6 0.00 1.09 0.00 100 1016.7
20260502121055 59 334 8.7 13.0 0.00 1.09 0.00 100 1016.6
20260502115553 59 11 8.7 13.9 0.00 1.09 0.00 100 1016.5
20260502115053 59 355 9.6 13.9 0.00 1.09 0.00 100 1016.4
20260502114554 59 30 9.6 15.6 0.00 1.09 0.00 100 1016.4
20260502114053 59 5 8.7 15.6 0.00 1.09 0.00 100 1016.4
20260502113553 59 355 8.7 13.9 0.00 1.09 0.00 100 1016.3
20260502113053 59 351 8.7 13.0 0.00 1.09 0.00 100 1016.2
20260502112052 60 5 7.8 12.2 0.00 1.09 0.00 100 1016.1
20260502111551 60 12 6.1 12.2 0.00 1.09 0.00 100 1016.2
20260502110551 60 320 6.1 10.4 0.00 1.09 0.00 100 1016.1
20260502110051 60 348 7.8 12.2 0.00 1.09 0.00 100 1016.0
20260502105551 59 0 8.7 12.2 0.00 1.09 0.00 100 1015.8
20260502105052 59 38 8.7 13.0 0.00 1.09 0.00 100 1015.8
20260502104052 59 11 9.6 13.9 0.00 1.09 0.00 100 1015.6
20260502103552 59 350 8.7 13.9 0.00 1.09 0.00 100 1015.4
20260502103052 59 11 7.0 13.9 0.00 1.09 0.00 100 1015.3
20260502102551 59 341 7.8 13.9 0.00 1.09 0.00 100 1015.3
20260502102049 60 355 7.8 13.9 0.00 1.09 0.00 100 1015.3
20260502101549 60 5 7.8 13.9 0.00 1.09 0.00 100 1015.3
20260502100549 59 327 7.8 13.0 0.00 1.09 0.00 100 1015.3
20260502090544 60 329 6.1 11.3 0.00 1.09 0.00 100 1015.2
20260502071039 60 0 13.9 20.9 0.00 1.09 0.00 100 1013.9
20260502065540 60 5 14.8 23.5 0.00 1.09 0.00 100 1014.1
20260502065040 60 5 15.6 23.5 0.00 1.09 0.00 100 1014.1
20260502064540 60 13 14.8 23.5 0.00 1.09 0.00 100 1014.1
20260502063540 60 5 13.9 20.0 0.00 1.09 0.00 100 1014.1
20260502063038 60 5 12.2 20.9 0.00 1.09 0.00 100 1014.2
20260502062538 60 350 11.3 20.9 0.00 1.09 0.00 100 1014.2
20260502062037 60 345 11.3 19.1 0.00 1.09 0.00 100 1014.1
20260502061038 60 0 10.4 19.1 0.00 1.09 0.00 100 1014.0
20260502060538 60 336 12.2 19.1 0.00 1.09 0.00 100 1013.9
20260502060038 60 345 13.0 19.1 0.00 1.09 0.00 100 1013.9
20260502055538 60 16 13.0 19.1 0.00 1.09 0.00 100 1013.8
20260502055038 60 355 13.0 21.7 0.00 1.09 0.00 100 1013.7
20260502054538 60 5 14.8 21.7 0.00 1.09 0.00 100 1013.7
20260502054036 60 355 14.8 24.3 0.00 1.09 0.00 100 1013.7
20260502053036 61 0 13.9 21.7 0.00 1.09 0.00 100 1013.6
20260502052536 61 19 14.8 22.6 0.00 1.09 0.00 100 1013.5
20260502052036 61 332 15.6 22.6 0.00 1.09 0.00 100 1013.3
20260502050537 62 17 13.9 22.6 0.00 1.09 0.00 100 1013.1
20260502045536 62 11 14.8 25.2 0.00 1.09 1.13 100 1012.9
20260502045035 62 17 13.0 21.7 0.00 1.09 1.13 100 1012.8
20260502044535 63 5 13.0 20.0 0.00 1.09 1.13 100 1013.0
20260502044034 63 336 14.8 22.6 0.00 1.09 1.13 100 1013.0
20260502043034 63 332 14.8 24.3 0.00 1.09 1.13 100 1012.8
20260502042534 63 36 15.6 26.1 0.00 1.09 1.13 100 1012.6
20260502041534 63 351 16.5 25.2 0.00 1.09 1.13 100 1012.6
20260502041034 63 15 16.5 26.1 0.00 1.09 1.13 100 1012.4
20260502040534 63 13 17.4 26.1 0.00 1.09 1.13 100 1012.3
20260502040032 63 0 16.5 25.2 0.00 1.09 1.13 100 1012.1
20260502035532 63 12 16.5 24.3 0.00 1.09 1.13 100 1012.2
20260502035032 63 0 15.6 22.6 0.00 1.09 1.13 100 1012.2
20260502034532 63 0 14.8 21.7 0.00 1.09 1.13 100 1012.1
20260502034032 63 340 14.8 23.5 0.00 1.09 1.13 100 1011.9
20260502032532 64 355 16.5 25.2 0.00 1.09 1.13 100 1011.6
20260502032032 64 15 14.8 23.5 0.00 1.09 1.13 100 1011.6
20260502031532 64 0 14.8 21.7 0.00 1.09 1.13 100 1011.6
20260502031030 64 5 15.6 21.7 0.00 1.09 1.13 100 1011.6
20260502030030 64 5 14.8 21.7 0.00 1.09 1.13 100 1011.3
20260502025530 64 22 14.8 20.9 0.00 1.09 1.13 100 1011.3
20260502025030 64 27 13.9 20.9 0.00 1.09 1.13 100 1011.2
20260502024530 64 5 13.0 20.9 0.00 1.09 1.13 100 1011.1
20260502023530 64 18 15.6 22.6 0.00 1.09 1.13 100 1010.7
20260502023030 64 339 14.8 22.6 0.00 1.09 1.13 100 1010.8
20260502022529 64 12 15.6 22.6 0.00 1.09 1.13 100 1010.8
20260502022028 64 5 15.6 22.6 0.00 1.09 1.13 100 1010.8
20260502021528 64 349 15.6 22.6 0.00 1.09 1.13 100 1010.6
20260502021028 64 9 15.6 22.6 0.00 1.09 1.13 100 1010.4
20260502020528 64 355 14.8 23.5 0.00 1.09 1.13 100 1010.3
20260502020028 64 5 14.8 23.5 0.00 1.09 1.13 100 1010.3
20260502015528 64 355 15.6 21.7 0.00 1.09 1.13 100 1010.1
20260502015029 64 5 15.6 21.7 0.00 1.09 1.13 100 1009.9
20260502014528 65 5 13.9 20.9 0.00 1.09 1.13 100 1009.7
20260502014028 65 355 14.8 22.6 0.00 1.09 1.13 100 1009.7
20260502013528 65 5 14.8 22.6 0.00 1.09 1.13 100 1009.8
20260502013026 65 0 14.8 23.5 0.00 1.09 1.13 100 1009.5
20260502012526 65 16 14.8 23.5 0.00 1.09 1.13 100 1009.4
20260502012026 65 9 15.6 21.7 0.00 1.09 1.13 100 1009.4
20260502011526 65 12 15.6 21.7 0.00 1.09 1.13 100 1009.4
20260502011027 65 16 13.0 21.7 0.00 1.09 1.13 100 1009.5
20260502010526 65 16 12.2 20.9 0.00 1.09 1.13 100 1009.7
20260502010026 65 333 13.0 22.6 0.00 1.09 1.13 100 1009.7
20260502005526 65 26 11.3 22.6 0.00 1.09 1.13 100 1009.5
20260502005027 65 32 11.3 19.1 0.00 1.09 1.13 100 1009.6
20260502004525 65 343 13.0 20.0 0.00 1.09 1.13 100 1009.3
20260502003524 65 340 13.0 22.6 0.00 1.09 1.13 100 1008.9
20260502003024 65 350 13.9 22.6 0.00 1.09 1.13 100 1008.8
20260502002525 65 343 13.0 25.2 0.02 1.09 1.13 100 1008.7
20260502002024 65 0 12.2 25.2 0.04 1.09 1.13 100 1008.6
20260502001524 66 349 13.0 20.9 0.09 1.09 1.13 100 1008.4
20260502000022 66 307 13.0 21.7 0.30 1.09 1.13 100 1008.6
20260501235521 66 326 12.2 19.1 0.30 1.09 1.13 100 1008.8
20260501235020 66 338 12.2 20.9 0.30 1.09 1.13 100 1008.6
20260501234521 66 333 13.0 20.9 0.30 1.09 1.13 100 1008.3
20260501234018 66 329 13.0 20.9 0.30 1.09 1.13 100 1008.4
20260501233518 66 319 13.9 26.1 0.30 1.09 1.13 100 1008.4
20260501233018 66 295 13.9 26.1 0.30 1.09 1.13 100 1008.2
20260501232517 67 314 13.9 26.1 0.28 1.07 1.11 100 1007.3
20260501232017 67 310 16.5 26.1 0.27 1.05 1.10 100 1008.2
20260501231516 67 5 18.2 27.8 0.23 1.00 1.04 100 1006.1
20260501231016 68 320 17.4 27.8 0.02 0.79 0.83 100 1008.3
20260501230016 68 24 13.0 21.7 0.02 0.79 0.83 100 1005.2
20260501225017 68 18 16.5 22.6 0.02 0.79 0.83 100 1004.6
20260501224515 68 9 15.6 22.6 0.02 0.79 0.83 100 1004.9
20260501223512 68 9 17.4 25.2 0.02 0.79 0.83 100 1005.4
20260501223012 68 14 17.4 26.1 0.02 0.79 0.83 100 1005.3
20260501222012 68 14 15.6 21.7 0.01 0.78 0.82 100 1005.8
20260501221013 68 49 13.9 22.6 0.00 0.77 0.81 100 1005.8
20260501215512 68 32 16.5 26.1 0.00 0.77 0.81 100 1005.4
20260501215013 68 11 14.8 23.5 0.00 0.77 0.81 100 1005.9
20260501214513 68 17 14.8 22.6 0.01 0.77 0.81 100 1006.0
20260501214012 68 19 15.6 22.6 0.02 0.77 0.81 100 1005.8
20260501213012 68 12 14.8 22.6 0.34 0.77 0.81 100 1006.2
20260501212513 68 15 15.6 25.2 0.37 0.77 0.81 100 1006.4
20260501212013 69 12 16.5 25.2 0.38 0.77 0.81 100 1006.3
20260501211512 69 27 14.8 24.3 0.39 0.77 0.81 100 1006.3
20260501211012 69 18 12.2 20.0 0.39 0.77 0.81 100 1006.4
20260501210512 69 5 9.6 18.2 0.40 0.77 0.81 100 1006.4
20260501210013 69 349 7.8 15.6 0.46 0.77 0.81 100 1006.5
20260501205512 69 349 7.8 12.2 0.77 0.77 0.81 100 1006.7
20260501205012 69 348 7.8 13.9 0.77 0.77 0.81 100 1006.6
20260501204512 68 324 7.8 13.9 0.76 0.76 0.80 100 1006.4
20260501204012 68 340 7.0 12.2 0.75 0.75 0.79 100 1006.6
20260501203012 68 273 8.7 13.9 0.43 0.43 0.51 100 1007.5
20260501202012 68 15 8.7 12.2 0.39 0.39 0.44 100 1005.3
20260501201513 68 5 7.8 12.2 0.38 0.38 0.43 100 1005.4
20260501201013 68 335 10.4 21.7 0.38 0.38 0.42 100 1005.4
20260501200513 68 325 21.7 39.1 0.37 0.37 0.41 100 1007.0
20260501195512 69 55 14.8 30.4 0.00 0.00 0.04 100 1003.9
20260501193714 71 349 10.4 19.1 0.00 0.00 0.00 100 1005.1
20260501192712 71 77 13.0 20.9 0.00 0.00 0.00 100 1004.2
20260501192212 71 57 14.8 20.9 0.00 0.00 0.00 100 1004.7
20260501191713 71 60 14.8 22.6 0.00 0.00 0.00 100 1004.5
20260501190252 72 57 16.5 24.3 0.00 0.00 0.00 100 1004.5
20260501185754 72 25 18.2 28.7 0.00 0.00 0.00 100 1004.8
20260501185253 72 44 18.2 28.7 0.00 0.00 0.00 100 1005.2
20260501184752 72 26 19.1 26.1 0.00 0.00 0.00 100 1005.2
20260501184253 72 37 18.2 26.1 0.00 0.00 0.00 100 1005.3
20260501183753 72 40 16.5 25.2 0.00 0.00 0.00 100 1005.4
20260501183252 72 25 16.5 22.6 0.00 0.00 0.00 100 1005.5
20260501182752 71 34 15.6 22.6 0.00 0.00 0.00 100 1005.8
20260501181753 71 24 13.9 21.7 0.00 0.00 0.00 100 1006.4
20260501180752 71 5 15.6 20.9 0.00 0.00 0.00 100 1006.6
20260501180253 72 22 14.8 21.7 0.00 0.00 0.00 100 1006.4
20260501175253 71 22 13.0 19.1 0.00 0.00 0.00 100 1006.3
20260501174753 71 0 13.0 19.1 0.00 0.00 0.00 100 1006.3
20260501173753 71 11 13.0 18.2 0.00 0.00 0.00 100 1006.3
20260501172753 71 19 11.3 16.5 0.00 0.00 0.00 100 1006.4
20260501172253 71 9 12.2 18.2 0.00 0.00 0.00 100 1006.6
20260501171752 71 11 13.0 18.2 0.00 0.00 0.00 100 1006.9
20260501171252 72 5 12.2 18.2 0.00 0.00 0.00 100 1007.2
20260501165752 72 27 12.2 20.0 0.00 0.00 0.00 100 1007.3
20260501164753 73 36 13.0 19.1 0.00 0.00 0.00 100 1007.2
20260501164253 73 12 13.9 19.1 0.00 0.00 0.00 100 1007.4
20260501163753 73 26 13.0 18.2 0.00 0.00 0.00 100 1007.7
20260501163252 73 18 13.0 19.1 0.00 0.00 0.00 100 1007.8
20260501162753 74 0 13.0 19.1 0.00 0.00 0.00 100 1007.9
20260501162253 74 351 13.0 19.1 0.00 0.00 0.00 100 1008.1
20260501161751 74 346 12.2 18.2 0.00 0.00 0.00 100 1008.1
20260501161251 74 5 11.3 16.5 0.00 0.00 0.00 100 1007.9
20260501160751 74 5 10.4 17.4 0.00 0.00 0.00 100 1007.9
20260501160251 74 32 11.3 17.4 0.00 0.00 0.00 100 1007.8
20260501155751 74 13 12.2 17.4 0.00 0.00 0.00 100 1007.8
20260501155250 74 28 12.2 17.4 0.00 0.00 0.00 100 1007.8
20260501154251 75 36 12.2 20.0 0.00 0.00 0.00 100 1007.6
20260501153751 75 29 13.0 20.0 0.00 0.00 0.00 100 1007.5
20260501153252 75 39 13.9 20.0 0.00 0.00 0.00 100 1007.6
20260501152748 74 27 13.9 20.0 0.00 0.00 0.00 100 1007.5
20260501152249 74 28 13.0 19.1 0.00 0.00 0.00 100 1007.6
20260501151749 74 5 13.9 19.1 0.00 0.00 0.00 100 1007.5
20260501151249 74 37 13.9 20.9 0.00 0.00 0.00 100 1007.5
20260501150249 74 17 12.2 19.1 0.00 0.00 0.00 100 1007.6
20260501145749 74 42 12.2 19.1 0.00 0.00 0.00 100 1007.6
20260501145249 74 49 13.0 19.1 0.00 0.00 0.00 100 1007.5